Home > Time Zones > World Clock > Weather > Russia > Perm > Past weeks

Flag for Russia Weather past 2 weeks in Perm, Russia

21 °F

Mostly cloudy.

Feels Like: 14 °F
Forecast: 17 / 34 °F
Wind: 6 mph from East

Location: Perm'/Bolshoe Savino

Current Time: Nov 27, 2015 at 6:50:58 AM

Latest Report: Nov 27, 2015 at 6:30 AM

Visibility: N/A

Pressure: 29.86 "Hg

Humidity: 86%

Dew point: 18 °F

Location of PermLocation

Historic Weather in Perm — Graph


Perm temperature yesterday

Maximum temperature yesterday: 27 °F (at 12:30 PM)
Minimum temperature yesterday: 19 °F (at 2:30 AM)
Average temperature yesterday: 23 °F

Past Weeks' High & Low Weather Summary

High39 °F (Nov 23, 11:00 AM)100% (Nov 22, 11:30 AM)30.39 "Hg (Nov 22, 11:30 AM)
Low3 °F (Nov 20, 4:00 AM)56% (Nov 20, 2:30 PM)29.53 "Hg (Nov 23, 11:30 AM)
Average20 °F82%30.09 "Hg
* Reported Nov 12 6:00 AM — Nov 27 6:00 AM, Perm, Weather by CustomWeather, © 2015

Note: Actual official high and low records may vary slightly from our data, if they occured in-between our weather recording intervals... More about our weather records


Perm weather history for previous 24 hours

Time TempWeatherWind HumidityBarometerVisibility
6:00 AM
Fri, Nov 27
21 °FMostly cloudy.8 mph86%29.89 "HgN/A
5:30 AM21 °FMostly cloudy.8 mph86%29.89 "HgN/A
4:30 AM23 °FOvercast.8 mph80%29.92 "HgN/A
3:30 AM23 °FOvercast.8 mph80%29.95 "HgN/A
3:00 AM23 °FOvercast.8 mph80%29.95 "HgN/A
2:30 AM23 °FOvercast.8 mph86%29.98 "HgN/A
1:00 AM21 °FOvercast.1 mph100%29.98 "Hg5 mi
12:00 AM21 °FOvercast.No wind100%30.01 "Hg6 mi
11:00 PM
Thu, Nov 26
21 °FPassing clouds.1 mph93%30.04 "Hg6 mi
10:30 PM19 °FPassing clouds.1 mph100%30.04 "Hg4 mi
10:00 PM19 °FPassing clouds.1 mph100%30.04 "Hg4 mi
9:30 PM19 °FPassing clouds.1 mph100%30.07 "Hg4 mi
9:00 PM19 °FPassing clouds.1 mph100%30.07 "Hg4 mi
8:30 PM19 °FPassing clouds.3 mph100%30.07 "Hg4 mi
8:00 PM19 °FIce fog.3 mph93%30.07 "Hg3 mi
7:30 PM21 °FIce fog.No wind100%30.09 "Hg2 mi
7:00 PM21 °FPassing clouds.3 mph100%30.09 "Hg4 mi
6:30 PM23 °FPartly sunny.3 mph93%30.09 "Hg4 mi
6:00 PM21 °FPartly sunny.3 mph100%30.09 "Hg4 mi
5:30 PM21 °FBroken clouds.6 mph93%30.12 "Hg5 mi
5:00 PM23 °FScattered clouds.1 mph100%30.09 "HgN/A
4:30 PM25 °FScattered clouds.1 mph93%30.09 "HgN/A
4:00 PM27 °FPartly sunny.3 mph86%30.09 "HgN/A
3:30 PM27 °FPartly sunny.1 mph93%30.12 "HgN/A
3:00 PM27 °FOvercast.1 mph93%30.12 "HgN/A
2:30 PM27 °FOvercast.1 mph93%30.12 "HgN/A
2:00 PM27 °FOvercast.1 mph93%30.12 "HgN/A
1:30 PM27 °FOvercast.3 mph93%30.12 "HgN/A
1:00 PM27 °FLow clouds.3 mph93%30.12 "HgN/A
12:30 PM27 °FLight snow. Overcast.3 mph93%30.12 "HgN/A
12:00 PM25 °FLight snow. Overcast.3 mph100%30.12 "HgN/A
11:30 AM25 °FLight snow. Overcast.3 mph93%30.12 "HgN/A
11:00 AM25 °FOvercast.6 mph93%30.12 "HgN/A
10:30 AM25 °FOvercast.6 mph93%30.12 "HgN/A
10:00 AM25 °FOvercast.6 mph93%30.12 "HgN/A
9:30 AM25 °FLight snow. Overcast.3 mph93%30.12 "HgN/A
8:30 AM25 °FLight snow. Overcast.3 mph93%30.12 "HgN/A
8:00 AM25 °FLight snow. Mostly cloudy.3 mph93%30.12 "HgN/A
7:30 AM25 °FLight snow. Mostly cloudy.3 mph93%30.12 "HgN/A
7:00 AM25 °FLight snow. Mostly cloudy.8 mph93%30.12 "HgN/A
6:30 AM25 °FLight snow. Mostly cloudy.8 mph93%30.12 "HgN/A
6:00 AM25 °FLight snow. Mostly cloudy.6 mph93%30.12 "HgN/A
Weather by CustomWeather, © 2015

See weather overviewHow to use our weather pages